Regional Weather Roundup
Issued by NWS Sioux Falls, SD

Home | Current Version | Previous Version | Graphics & Text | Print | Product List | Glossary Off
Versions: 1 2 3 4 5 6 7 8 9 10 11 12 13 14 15 16 17 18 19 20 21 22 23 24 25 26 27 28 29 30 31 32 33 34 35 36 37 38 39 40 41 42 43 44 45 46 47 48 49 50

320
ASUS43 KFSD 201410
RWRFSD

WEATHER ROUNDUP FOR SE SOUTH DAKOTA/SW MINNESOTA/NW IOWA
NATIONAL WEATHER SERVICE SIOUX FALLS SD
900 AM CDT WED SEP 20 2017

NOTE: "FAIR" INDICATES FEW OR NO CLOUDS BELOW 12,000 FEET WITH NO
SIGNIFICANT WEATHER AND OR OBSTRUCTIONS TO VISIBILITY.


SDZ038>040-050-052>070-201500-
SOUTHEAST SOUTH DAKOTA

CITY           SKY/WX    TMP DP  RH WIND       PRES   REMARKS
BROOKINGS      MOSUNNY   55  49  80 NW13G22     N/A
CHAMBERLAIN    SUNNY     55  49  81 SW7       29.85S
HURON          SUNNY     54  47  77 W10       29.82R
MADISON        FAIR      54  54 100 W15       29.81R
MITCHELL       SUNNY     56  50  80 W10       29.84R
SIOUX FALLS    MOSUNNY   58  52  80 NW8       29.81R
WINNER         FAIR      53  46  77 SW6       29.86R
YANKTON        SUNNY     57  50  77 W14       29.83R
$$

MNZ071-072-080-081-089-090-097-098-201500-
SOUTHWEST MINNESOTA

CITY           SKY/WX    TMP DP  RH WIND       PRES   REMARKS
FAIRMONT       SUNNY     63  56  78 W15       29.75R
JACKSON        SUNNY     59  54  82 CALM      29.76R
LUVERNE        SUNNY     55  50  82 NW8       29.80R
MARSHALL       SUNNY     58  53  84 NW14      29.77R
MONTEVIDEO     CLOUDY    61  59  94 NW8G16    29.75R
PIPESTONE      SUNNY     55  52  88 NW10      29.79R
REDWOOD FALLS  SUNNY     60  56  86 W15       29.74R
TRACY          SUNNY     59  56  89 NW12      29.77R
WINDOM         SUNNY     61  55  82 W10       29.76R
WORTHINGTON    SUNNY     58  53  84 W14       29.77R
$$

IAZ001>003-012>014-020>022-031-032-NEZ013-014-SDZ071-201500-
NORTHWEST IOWA

CITY           SKY/WX    TMP DP  RH WIND       PRES   REMARKS
CHEROKEE       SUNNY     61  57  86 NW6       29.78R
DENISON        SUNNY     64  55  72 N8        29.78R
ESTHERVILLE    SUNNY     61  57  87 W12       29.75R
LE MARS        SUNNY     61  55  82 VRB6G12   29.79R
ORANGE CITY    SUNNY     61  55  82 NW13G20   29.79R
SHELDON        SUNNY     59  54  82 NW10G21   29.77R
SIOUX CITY     SUNNY     61  57  87 NW10      29.80R
SPENCER        SUNNY     62  57  83 NW13      29.76R
STORM LAKE     SUNNY     63  55  77 NW14G20   29.77R
$$

ABBREVIATIONS USED IN REMARKS
   TC - TEMPERATURE IN CELSIUS
  WCI - WIND CHILL INDEX
   HX - HEAT INDEX
  VSB - VISIBILITY





USA.gov is the U.S. government's official web portal to all federal, state and local government web resources and services.